User: anonymous   Login
Location: Knowlton
(51.2333°N, 1.2667°E)
Time: 22:27:55
(UTC+00:00)
Language:

JY1SAT - Orbit

View from above orbital plane
View from above orbital plane
View from above satellite
View from above satellite

Ground track
Ground track

The orbit data is extracted from the following two-line orbital elements,

1 43803U 18099AX  21335.41795247  .00001448  00000-0  13353-3 0  9993
2 43803  97.6468  42.3068 0014272 206.1276 153.9227 14.96132133163454
Epoch (UTC): 01 December 2021 10:01:51
Eccentricity: 0.0014272
inclination: 97.6468°
perigee height: 569 km
apogee height: 589 km
right ascension of ascending node: 42.3068°
argument of perigee: 206.1276°
revolutions per day: 14.96132133
mean anomaly at epoch: 153.9227°
orbit number at epoch: 16345

The dashed part of the orbit path shows where the satellite is in the earth's shadow,  

DLR